User: anonymous   Login
Location: Unspecified
(0.0000°N, 0.0000°E)
Time: 23:52:58
(UTC+02:00)
Language:

Iridium 4 Rocket - Orbit

View from above orbital plane
View from above orbital plane
View from above satellite
View from above satellite

Ground track
Ground track

The orbit data is extracted from the following two-line orbital elements,

1 24797U 97020F   17291.06993994  .00000157  00000-0  29272-4 0  9995
2 24797  86.8919 308.3690 0223135 267.6436 143.0476 14.44010064 75675
Epoch (UTC): 18 October 2017 01:40:42
Eccentricity: 0.0223135
inclination: 86.8919°
perigee height: 586 km
apogee height: 904 km
right ascension of ascending node: 308.3690°
argument of perigee: 267.6436°
revolutions per day: 14.44010064
mean anomaly at epoch: 143.0476°
orbit number at epoch: 7567

The dashed part of the orbit path shows where the satellite is in the earth's shadow,  

DLR